Tracking 20942 objects as of 14-Jul-2020
HD Live streaming from Space Station
objects crossing your sky now

DELTA 1 DEB

Track DELTA 1 DEB now!
10-day predictions


NORAD ID: 12246
Int'l Code: 1978-026CP
Perigee: 852.4 km
Apogee: 933.5 km
Inclination: 99.3 °
Period: 102.7 minutes
Semi major axis: 7263 km
RCS: 0.186 m2 (medium)
Launch date: March 5, 1978
Source: United States (US)
Launch site: AIR FORCE WESTERN TEST RANGE (AFWTR)

Note: This is SATELLITE DEBRIS
aabbcc
Your satellite tracking list
Your tracking list is empty




NASA's NSSDC Master Catalog

Two Line Element Set (TLE):
1 12246U 78026CP  20195.77181969 -.00000170 +00000-0 -79494-4 0  9990
2 12246 099.3067 025.5555 0055883 187.5077 186.2470 14.02307683014245
Source of the keplerian elements: AFSPC